Flag for U.S.A. Weather past 2 weeks in Spartanburg, South Carolina, U.S.A.

Now
72 °F

Scattered clouds.


Feels Like: 75 °F
Forecast: 60 / 84 °F
Wind: No wind

Location: Spartanburg Memorial

Current Time: May 25, 2015 at 10:19:20 AM

Latest Report: May 25, 2015 at 9:55 AM


Visibility: 10 mi

Pressure: 30.34 "Hg

Humidity: 69%

Dew point: 61 °F

Location of SpartanburgLocation

Historic Weather in Spartanburg — Graph

°F

Spartanburg temperature yesterday

Maximum temperature yesterday: 82 °F (at 3:15 PM)
Minimum temperature yesterday: 55 °F (at 4:15 AM)
Average temperature yesterday: 70 °F

Past Weeks' High & Low Weather Summary

 TemperatureHumidityPressure
High91 °F (May 11, 3:35 PM)100% (May 11, 12:55 AM)30.44 "Hg (May 11, 12:55 AM)
Low54 °F (May 23, 3:35 AM)19% (May 21, 6:35 PM)29.81 "Hg (May 21, 5:15 PM)
Average74 °F61%30.17 "Hg
* Reported May 10 9:15 AM — May 25 9:15 AM, Spartanburg, Weather by CustomWeather, © 2015

Note: Actual official high and low records may vary slightly from our data, if they occured in-between our weather recording intervals... More about our weather records

Advertising

Spartanburg weather history for previous 24 hours

 ConditionsComfort  
Time TempWeatherWind HumidityBarometerVisibility
9:15 AM
Mon, May 25
72 °FScattered clouds.No wind69%30.34 "Hg10 mi
8:55 AM70 °FSunny.No wind69%30.34 "Hg10 mi
8:35 AM68 °FScattered clouds.No wind73%30.34 "Hg10 mi
8:15 AM68 °FScattered clouds.No wind78%30.34 "Hg10 mi
7:55 AM64 °FSunny.No wind100%30.34 "Hg10 mi
7:35 AM63 °FSunny.No wind100%30.33 "Hg10 mi
7:15 AM61 °FClear.No wind100%30.33 "Hg10 mi
6:55 AM61 °FClear.No wind100%30.33 "Hg10 mi
6:35 AM61 °FClear.No wind100%30.32 "Hg10 mi
6:15 AM59 °FClear.No wind100%30.32 "Hg10 mi
5:55 AM59 °FClear.No wind100%30.32 "Hg10 mi
5:35 AM61 °FClear.No wind100%30.31 "Hg10 mi
5:15 AM59 °FClear.No wind100%30.31 "Hg10 mi
4:55 AM61 °FClear.No wind100%30.31 "Hg10 mi
4:35 AM61 °FClear.No wind100%30.30 "Hg10 mi
4:15 AM61 °FClear.No wind100%30.30 "Hg10 mi
3:55 AM61 °FClear.No wind100%30.31 "Hg10 mi
3:35 AM61 °FClear.No wind100%30.30 "Hg10 mi
3:15 AM61 °FClear.No wind94%30.30 "Hg10 mi
2:55 AM63 °FClear.No wind77%30.30 "Hg10 mi
2:35 AM64 °FClear.No wind73%30.30 "Hg10 mi
2:15 AM64 °FClear.No wind73%30.30 "Hg10 mi
1:55 AM64 °FClear.3 mph73%30.31 "Hg10 mi
1:35 AM66 °FClear.No wind68%30.31 "Hg10 mi
1:15 AM68 °FClear.3 mph64%30.32 "Hg10 mi
12:55 AM68 °FClear.No wind64%30.32 "Hg10 mi
12:35 AM68 °FClear.3 mph64%30.32 "Hg10 mi
11:55 PM
Sun, May 24
68 °FClear.No wind64%30.32 "Hg10 mi
11:35 PM70 °FClear.5 mph57%30.31 "Hg10 mi
11:15 PM68 °FClear.No wind64%30.31 "Hg10 mi
10:55 PM68 °FClear.No wind64%30.31 "Hg10 mi
10:35 PM68 °FClear.No wind64%30.30 "Hg10 mi
10:15 PM70 °FClear.No wind60%30.30 "Hg10 mi
9:55 PM70 °FClear.No wind57%30.29 "Hg10 mi
9:35 PM72 °FClear.No wind53%30.29 "Hg10 mi
9:15 PM72 °FSunny.No wind53%30.28 "Hg10 mi
8:55 PM73 °FSunny.3 mph53%30.28 "Hg10 mi
8:35 PM77 °FSunny.No wind42%30.28 "Hg10 mi
8:15 PM77 °FSunny.No wind42%30.28 "Hg10 mi
7:55 PM79 °FSunny.5 mph37%30.27 "Hg10 mi
7:35 PM81 °FSunny.5 mph34%30.27 "Hg10 mi
7:15 PM81 °FSunny.7 mph34%30.28 "Hg10 mi
6:55 PM81 °FSunny.3 mph34%30.28 "Hg10 mi
6:35 PM82 °FSunny.6 mph30%30.28 "Hg10 mi
6:15 PM82 °FSunny.5 mph30%30.28 "Hg10 mi
5:35 PM82 °FSunny.5 mph30%30.28 "Hg10 mi
5:15 PM82 °FSunny.6 mph30%30.29 "Hg10 mi
4:55 PM82 °FSunny.No wind32%30.29 "Hg10 mi
4:35 PM82 °FSunny.6 mph32%30.30 "Hg10 mi
4:15 PM82 °FScattered clouds.7 mph32%30.30 "Hg10 mi
3:55 PM82 °FScattered clouds.9 mph32%30.31 "Hg10 mi
3:35 PM82 °FSunny.3 mph32%30.32 "Hg10 mi
3:15 PM82 °FScattered clouds.7 mph35%30.33 "Hg10 mi
2:55 PM81 °FScattered clouds.No wind34%30.34 "Hg10 mi
2:35 PM79 °FScattered clouds.7 mph39%30.35 "Hg10 mi
2:15 PM81 °FScattered clouds.6 mph37%30.36 "Hg10 mi
1:55 PM79 °FScattered clouds.5 mph37%30.37 "Hg10 mi
1:35 PM81 °FScattered clouds.6 mph39%30.37 "Hg10 mi
1:15 PM81 °FScattered clouds.6 mph39%30.37 "Hg10 mi
12:55 PM77 °FPartly sunny.5 mph44%30.38 "Hg10 mi
12:35 PM77 °FScattered clouds.3 mph42%30.38 "Hg10 mi
12:15 PM79 °FSunny.6 mph42%30.39 "Hg10 mi
11:55 AM77 °FSunny.6 mph42%30.39 "Hg10 mi
11:35 AM77 °FSunny.5 mph42%30.39 "Hg10 mi
11:15 AM73 °FSunny.3 mph53%30.40 "Hg10 mi
10:55 AM73 °FSunny.5 mph57%30.41 "Hg10 mi
10:35 AM73 °FSunny.3 mph57%30.41 "Hg10 mi
10:15 AM72 °FSunny.6 mph61%30.41 "Hg10 mi
Weather by CustomWeather, © 2015

See weather overviewHow to use our weather pages